Back to catalog

QIANFAN-138

AliveCommunicationsPO
NORAD 69084·PAYLOAD·🇨🇳 China

Launched May 12, 2026 from Taiyuan Satellite Launch Center

Loading…

Next Passes (next 24 hours)

TLE

FreshSource: Space-Track

Epoch: Sep 14, 2026, 12:12 UTC

1 69084U 26104M   26257.50846617  .00000120  00000-0  16717-3 0  9997
2 69084  88.9905 332.3769 0002492 109.2666 250.8755 13.51021112 17207

Track QIANFAN-138 in real time with AllMySat

Download on the App Store